Wind_Speed
8 7 11 14 13 5 7 7 7 10 11 14 11 9 8 9 10 17 16 15 14 13 15 16 18 19 22 24 24 21 11 13 14 8 9 9 11 13 18 21 23 25 27 31
9 10 10 9 8 5 5 5 5 7 13 14 12 12 10 9 11 19 21 19 17 17 18 19 19 13 11 12 11 10 11 9 9 12 9 7 9 12 16 20 24 27 30 32
12 11 11 8 7 3 2 3 6 6 10 11 10 11 11 13 14 19 23 21 20 20 18 13 8 7 8 9 5 3 5 9 11 6 5 12 18 23 27 28 27 28 31 34
11 11 9 6 4 2 4 5 5 7 8 5 8 5 12 16 18 20 22 20 19 13 8 8 6 6 7 5 3 4 5 9 10 11 16 22 26 30 34 35 36 37 37 38
10 10 7 6 2 1 3 5 4 6 7 6 9 6 15 19 21 22 23 19 15 11 10 9 5 5 5 5 4 6 13 14 15 20 24 24 29 33 37 38 38 38 38 39
12 10 7 4 2 3 3 6 5 5 4 3 9 11 10 17 19 23 22 19 15 14 14 10 6 9 6 4 14 18 22 26 23 22 25 27 32 37 39 38 38 38 40 41
10 8 6 5 6 5 4 5 0 1 0 4 7 8 17 9 11 15 19 19 17 19 16 10 7 8 12 21 26 11 14 20 22 25 28 31 35 39 38 37 38 40 42 44
9 4 6 6 9 5 6 7 4 4 3 2 6 6 6 8 13 14 15 17 20 19 15 10 11 17 18 17 16 16 20 24 25 28 31 34 39 39 38 39 41 44 46 47
9 5 8 6 9 8 6 5 7 3 2 2 5 8 12 11 9 14 20 22 20 17 13 12 16 18 14 18 19 21 24 26 29 31 35 39 39 38 41 43 44 46 47 49
7 6 9 7 8 11 9 5 3 4 3 3 4 8 10 4 5 12 19 22 22 19 14 15 16 17 20 21 22 23 26 28 31 35 40 40 38 41 41 42 44 47 49 50
11 8 8 9 8 8 10 11 5 4 3 3 1 5 5 3 5 7 11 17 20 17 16 17 18 21 22 23 25 27 30 35 39 40 37 36 39 39 42 43 45 46 48 49
14 10 9 14 10 10 10 10 9 4 4 5 2 7 2 3 5 11 13 16 20 20 21 21 21 23 24 28 29 33 37 40 41 33 34 37 39 41 42 42 44 46 47 47
15 10 8 4 10 14 15 16 14 13 9 9 4 5 4 10 9 9 16 19 23 24 23 24 25 26 29 33 34 34 39 40 33 34 35 38 39 40 41 43 44 45 45 43
13 16 13 15 7 8 17 19 17 16 10 12 20 21 18 16 15 12 15 20 23 26 26 27 27 30 33 33 33 37 38 32 32 34 36 37 38 40 42 43 44 44 43 43
15 15 18 17 14 12 12 13 16 20 22 20 24 24 20 19 19 16 13 18 22 28 29 28 29 31 29 31 36 37 33 32 34 34 36 39 40 41 42 43 42 43 42 42
17 11 13 16 17 17 19 18 19 21 24 28 29 30 20 15 15 15 14 17 22 26 29 29 27 27 30 33 33 33 34 32 34 36 39 40 41 41 42 42 43 43 43 41
15 14 11 8 14 16 18 25 25 26 27 28 31 25 21 19 17 15 14 15 18 24 26 25 25 27 29 31 33 31 30 32 35 37 39 40 41 42 42 43 43 42 42 41
10 11 10 6 5 2 15 18 17 19 20 23 24 20 22 20 19 18 17 17 18 23 25 25 27 28 31 31 30 30 31 33 36 38 39 40 42 42 42 42 41 41 41 39
10 10 6 5 8 16 18 18 22 23 23 20 20 18 18 18 18 18 16 15 18 22 25 27 30 32 35 29 28 29 32 34 37 39 39 41 43 42 41 40 40 39 39 34
15 14 13 10 5 5 5 9 16 18 20 19 15 12 9 16 21 17 18 18 18 21 26 31 34 26 27 25 26 30 33 36 37 39 40 41 42 41 39 39 39 38 35 30
8 10 15 16 11 9 14 15 14 8 11 11 11 13 19 27 25 22 21 22 22 22 29 29 32 30 24 22 27 31 34 37 38 39 41 41 40 39 38 38 37 36 32 28
10 6 8 8 7 7 4 6 9 15 18 17 16 23 29 27 23 21 21 22 25 27 34 27 25 23 19 24 28 33 37 38 39 40 40 40 39 38 36 36 35 33 29 27
13 14 12 11 8 14 21 22 19 18 18 20 26 28 29 26 24 22 24 26 31 32 36 32 20 15 22 27 32 36 37 38 39 40 39 38 36 36 36 34 34 32 28 26
15 16 19 20 20 20 22 22 21 21 22 23 25 27 27 29 27 24 27 31 31 32 16 16 12 18 24 29 32 35 36 38 38 37 36 35 34 35 34 33 32 30 27 24
16 20 22 24 21 21 20 22 23 24 25 27 26 26 26 26 25 27 32 30 38 32 16 12 17 22 26 29 32 34 35 36 36 35 34 34 35 35 32 30 29 28 25 22
18 17 20 21 21 24 25 25 26 27 27 28 28 26 24 23 27 30 35 29 23 11 9 15 21 24 27 30 31 33 34 34 34 33 32 32 32 32 30 28 27 24 22 21
Wind_Direction
169 168 163 157 181 215 185 194 185 182 188 199 208 223 244 245 243 220 215 225 236 249 253 255 257 264 268 275 282 287 302 296 307 3 1 351 331 310 301 297 296 296 297 296
160 170 174 189 202 190 181 219 239 208 196 203 216 234 257 283 271 226 222 230 242 257 269 276 280 278 272 270 278 288 295 304 307 327 345 357 344 331 320 312 303 300 295 294
183 173 174 161 176 184 145 197 164 178 176 200 216 235 254 268 251 227 225 235 243 255 265 264 241 239 254 266 277 288 293 307 323 336 340 336 335 333 336 331 323 317 313 311
156 158 157 165 181 102 135 160 188 170 179 199 212 254 251 244 241 231 229 239 248 247 234 208 219 250 246 237 274 324 351 344 341 327 334 335 335 334 330 325 322 320 319 316
158 151 169 206 164 173 159 190 191 204 215 221 233 243 251 240 237 236 237 235 225 206 194 179 189 210 232 243 159 359 343 328 325 329 317 327 328 326 322 319 318 317 315 314
179 173 189 217 237 238 200 218 226 212 210 228 235 227 259 245 249 237 227 217 206 200 190 193 230 212 207 269 289 306 286 291 299 313 320 320 319 318 318 315 315 314 315 315
162 175 200 234 238 229 230 211 7 305 205 238 216 240 246 252 255 248 233 216 204 198 208 226 241 252 283 283 284 284 297 302 306 310 312 310 310 314 314 314 315 316 317 317
178 160 197 223 222 218 202 205 189 204 204 262 223 236 244 241 250 233 213 215 209 214 223 241 273 302 303 297 297 305 307 307 307 303 301 302 310 314 314 317 319 318 318 317
177 177 205 214 213 209 206 204 210 181 192 268 235 270 269 257 252 221 206 215 223 229 244 278 299 305 298 302 302 308 305 298 298 295 297 302 313 315 320 319 318 318 320 322
206 174 204 218 215 222 229 228 175 194 160 244 277 278 249 288 271 225 218 225 233 241 262 286 298 301 296 298 295 293 290 285 289 296 299 312 315 316 315 317 321 323 322 320
219 216 202 209 221 227 201 200 203 185 190 178 298 263 266 289 223 239 241 243 242 248 266 278 286 286 286 288 284 282 288 285 289 292 309 311 314 315 319 324 323 321 318 316
219 218 194 209 219 218 217 219 219 211 213 208 201 275 264 317 258 227 226 238 239 244 259 266 275 278 281 279 274 278 282 285 289 310 311 313 315 321 323 322 319 318 318 318
215 211 181 195 238 233 230 231 233 231 240 228 183 255 266 314 303 270 237 239 242 251 262 269 272 273 271 267 269 280 281 290 314 312 312 316 321 322 321 321 321 320 319 319
217 222 221 219 233 224 223 231 231 230 235 241 244 274 295 297 298 282 251 249 253 258 263 265 269 268 261 272 280 284 304 316 311 311 317 320 321 322 322 322 320 321 322 322
219 228 233 240 244 234 232 239 239 243 253 250 276 277 294 297 296 287 268 254 261 260 263 265 267 263 277 283 292 312 313 308 311 317 318 320 322 322 321 321 322 322 322 323
222 232 237 240 243 244 248 248 248 253 258 265 271 283 294 294 287 284 280 269 267 265 264 266 266 275 285 298 304 304 306 309 314 317 320 322 321 321 321 322 323 324 322 323
221 230 236 241 245 250 261 257 261 268 272 277 273 291 286 288 287 289 282 275 274 268 266 265 272 282 292 295 300 305 307 311 315 318 320 320 320 321 322 323 323 322 322 321
226 232 230 253 236 248 261 263 264 266 274 280 281 282 278 280 288 290 285 280 278 266 264 267 275 285 291 295 300 306 309 313 317 318 319 319 319 320 321 321 322 322 321 319
228 227 229 238 226 276 271 275 284 282 282 278 283 282 282 285 288 294 294 283 276 270 269 274 280 294 297 295 303 306 312 316 317 317 317 317 317 318 319 320 322 320 320 319
238 243 244 253 248 241 289 283 295 291 283 295 290 276 279 305 303 306 281 283 281 276 274 278 284 281 289 295 306 310 314 316 315 315 315 315 315 317 319 321 320 321 321 318
245 252 249 255 253 266 286 281 287 280 304 309 285 257 302 309 302 299 291 292 292 284 287 284 290 288 291 306 308 313 316 314 313 313 314 315 315 315 317 317 319 321 321 318
264 258 256 250 245 276 299 314 310 310 304 301 284 290 299 303 302 299 296 293 289 281 291 271 282 282 307 309 313 318 314 312 312 314 314 313 313 314 315 316 318 320 319 316
257 269 262 254 268 290 302 306 307 303 292 291 292 299 304 305 300 298 287 284 284 278 287 282 274 313 313 316 319 315 311 311 314 313 313 313 314 315 316 317 318 320 318 314
278 282 274 282 293 300 302 301 296 290 286 282 283 286 290 290 289 286 273 275 261 268 255 265 313 315 314 316 316 311 311 314 314 314 314 315 317 317 317 316 318 318 316 312
279 284 289 295 303 297 292 292 293 291 290 288 287 285 283 282 285 278 282 279 281 265 270 322 314 310 319 317 310 312 314 315 315 315 316 318 319 318 317 317 319 317 314 311
292 293 291 293 294 294 297 293 291 289 288 288 289 288 284 280 282 282 272 254 250 269 314 305 321 323 317 312 314 315 317 317 317 317 317 319 322 322 320 320 320 317 312 310
Height
3132 3134 3135 3136 3137 3139 3140 3142 3143 3145 3147 3150 3152 3153 3154 3156 3156 3159 3161 3163 3165 3166 3168 3169 3170 3170 3170 3169 3169 3170 3165 3165 3163 3164 3163 3162 3163 3165 3164 3162 3160 3157 3152 3149
3133 3134 3135 3137 3137 3139 3139 3140 3141 3142 3144 3148 3149 3151 3152 3152 3153 3155 3158 3160 3162 3163 3165 3165 3167 3165 3166 3165 3165 3164 3163 3163 3163 3162 3160 3161 3162 3161 3160 3157 3155 3151 3147 3142
3132 3134 3135 3136 3137 3138 3138 3139 3140 3142 3143 3145 3147 3148 3148 3149 3150 3152 3154 3156 3158 3159 3161 3162 3162 3162 3162 3162 3161 3161 3161 3160 3160 3159 3160 3159 3157 3155 3152 3150 3146 3141 3137 3133
3132 3133 3134 3136 3137 3137 3138 3139 3140 3141 3143 3144 3145 3146 3145 3146 3148 3149 3150 3152 3153 3156 3157 3158 3159 3160 3160 3159 3159 3159 3158 3157 3156 3156 3155 3154 3151 3148 3145 3141 3136 3132 3127 3122
3132 3132 3134 3136 3135 3136 3138 3139 3140 3141 3142 3143 3144 3145 3142 3143 3144 3145 3147 3148 3150 3152 3154 3156 3157 3158 3158 3157 3156 3157 3156 3155 3154 3152 3152 3149 3145 3142 3138 3133 3128 3123 3118 3113
3129 3131 3133 3134 3134 3135 3137 3139 3140 3141 3141 3142 3141 3143 3138 3139 3140 3141 3143 3145 3147 3150 3152 3153 3155 3155 3155 3156 3156 3154 3154 3153 3151 3149 3146 3142 3139 3135 3131 3125 3120 3114 3110 3105
3129 3130 3131 3133 3134 3135 3136 3137 3139 3140 3140 3139 3139 3140 3135 3135 3136 3137 3140 3143 3145 3147 3149 3151 3152 3153 3154 3153 3152 3150 3150 3148 3145 3143 3139 3136 3133 3128 3123 3117 3112 3106 3101 3095
3128 3131 3131 3131 3133 3135 3135 3136 3137 3139 3139 3137 3137 3134 3131 3132 3132 3134 3138 3141 3142 3144 3147 3149 3150 3149 3149 3148 3147 3145 3144 3142 3139 3136 3133 3129 3125 3119 3114 3109 3103 3097 3091 3086
3126 3128 3129 3130 3131 3134 3133 3135 3135 3135 3137 3137 3133 3131 3129 3129 3129 3130 3133 3136 3139 3141 3143 3145 3144 3143 3143 3142 3141 3138 3137 3135 3132 3128 3125 3121 3116 3111 3104 3099 3095 3089 3083 3075
3125 3127 3128 3129 3130 3131 3132 3133 3134 3134 3137 3136 3131 3128 3126 3127 3128 3129 3131 3133 3136 3138 3140 3140 3139 3138 3138 3137 3135 3133 3131 3128 3124 3121 3118 3113 3108 3103 3099 3093 3086 3079 3073 3066
3124 3126 3129 3129 3128 3129 3130 3130 3131 3132 3133 3132 3133 3127 3125 3126 3127 3129 3130 3132 3133 3135 3136 3136 3136 3135 3134 3131 3129 3128 3125 3121 3117 3114 3111 3106 3101 3096 3090 3083 3077 3071 3064 3058
3122 3123 3124 3126 3126 3127 3127 3128 3129 3130 3131 3130 3131 3126 3123 3124 3125 3126 3127 3128 3129 3130 3131 3131 3130 3129 3128 3126 3124 3122 3119 3115 3111 3107 3103 3098 3093 3087 3081 3076 3069 3062 3055 3047
3119 3120 3121 3124 3126 3124 3124 3125 3126 3127 3127 3126 3128 3123 3121 3121 3121 3121 3122 3123 3124 3125 3125 3124 3124 3123 3122 3120 3118 3116 3111 3107 3103 3099 3096 3091 3085 3080 3073 3067 3060 3053 3046 3040
3116 3116 3117 3119 3119 3119 3119 3120 3122 3123 3123 3121 3119 3118 3119 3118 3117 3117 3117 3118 3119 3119 3119 3118 3118 3117 3115 3113 3111 3107 3103 3099 3096 3093 3087 3082 3077 3071 3065 3059 3053 3046 3038 3031
3113 3113 3115 3115 3116 3116 3117 3117 3117 3117 3118 3117 3114 3113 3114 3113 3112 3111 3112 3113 3113 3113 3113 3113 3113 3111 3108 3105 3103 3098 3095 3092 3089 3084 3079 3074 3068 3063 3057 3051 3044 3037 3031 3023
3110 3111 3111 3112 3112 3113 3112 3113 3113 3112 3112 3110 3108 3106 3109 3108 3106 3106 3106 3107 3107 3107 3107 3107 3106 3104 3102 3099 3096 3092 3089 3085 3080 3076 3071 3066 3060 3055 3048 3042 3036 3029 3022 3016
3107 3108 3108 3108 3108 3109 3108 3106 3107 3106 3105 3104 3102 3103 3103 3102 3102 3101 3101 3102 3102 3102 3101 3101 3100 3097 3095 3092 3088 3085 3082 3077 3073 3068 3063 3058 3052 3047 3040 3034 3028 3021 3014 3007
3104 3105 3106 3106 3106 3106 3100 3100 3101 3100 3100 3098 3097 3097 3098 3098 3097 3096 3096 3096 3096 3095 3095 3094 3092 3090 3087 3083 3080 3078 3074 3069 3065 3060 3055 3050 3044 3038 3032 3026 3020 3013 3007 3000
3101 3102 3103 3103 3101 3098 3098 3097 3097 3095 3094 3094 3093 3092 3092 3092 3091 3092 3090 3090 3089 3089 3088 3087 3085 3082 3079 3075 3072 3070 3066 3061 3057 3052 3047 3042 3036 3030 3024 3018 3012 3005 2999 2993
3098 3099 3101 3100 3099 3096 3094 3093 3092 3090 3088 3088 3087 3087 3088 3088 3086 3086 3083 3083 3083 3082 3081 3079 3076 3072 3069 3066 3065 3062 3058 3054 3050 3044 3039 3033 3027 3022 3016 3010 3005 2999 2992 2986
3096 3096 3095 3095 3094 3090 3089 3088 3088 3090 3091 3086 3085 3084 3083 3082 3081 3080 3078 3077 3076 3075 3074 3071 3067 3064 3061 3059 3058 3055 3051 3046 3041 3036 3031 3025 3019 3013 3008 3003 2996 2990 2984 2979
3093 3093 3092 3091 3091 3088 3086 3087 3089 3087 3084 3082 3081 3080 3078 3076 3074 3073 3072 3071 3069 3067 3065 3060 3058 3055 3054 3054 3051 3047 3043 3038 3033 3027 3022 3016 3011 3006 3001 2995 2988 2983 2977 2973
3089 3089 3089 3089 3087 3085 3084 3083 3082 3080 3079 3078 3076 3073 3071 3069 3068 3067 3066 3064 3061 3058 3056 3052 3050 3049 3049 3047 3043 3039 3034 3029 3024 3019 3013 3008 3003 2997 2992 2986 2981 2975 2971 2967
3083 3083 3082 3082 3083 3081 3079 3078 3076 3074 3072 3071 3069 3067 3065 3063 3061 3059 3056 3054 3050 3048 3044 3043 3044 3044 3042 3038 3035 3031 3026 3021 3016 3011 3005 3000 2994 2989 2983 2979 2973 2968 2964 2961
3081 3079 3077 3076 3077 3074 3074 3071 3068 3067 3065 3062 3060 3059 3057 3055 3054 3051 3049 3046 3043 3039 3038 3038 3039 3036 3033 3031 3027 3023 3018 3013 3008 3002 2996 2991 2986 2980 2975 2972 2966 2962 2958 2955
3075 3074 3072 3069 3069 3067 3066 3064 3061 3058 3056 3054 3052 3050 3048 3047 3046 3043 3040 3035 3033 3032 3033 3033 3031 3029 3027 3023 3019 3014 3009 3004 2999 2994 2989 2983 2978 2973 2968 2964 2960 2956 2952 2949